Regional Weather Roundup
Issued by NWS

Home | Current Version | Previous Version | Text Only | Print | Product List | Glossary Off
Versions: 1 2 3 4 5 6 7 8 9 10 11 12 13 14 15 16 17 18 19 20 21 22 23 24 25 26 27 28 29 30 31 32 33 34 35 36 37 38 39 40 41 42 43 44 45 46 47 48 49 50

000
ASUS43 KMPX 212101
RWRMN
WEATHER ROUNDUP FOR MINNESOTA
NATIONAL WEATHER SERVICE TWIN CITIES/CHANHASSEN MN
300 PM CST FRI NOV 21 2014


NOTE: "FAIR" INDICATES FEW OR NO CLOUDS BELOW 12,000 FEET WITH NO
SIGNIFICANT WEATHER AND/OR OBSTRUCTIONS TO VISIBILITY. N/A MEANS
CURRENT SKY AND/OR WEATHER CONDITIONS ARE NOT AVAILABLE.

MNZ060>063-068>070-212200-
   Twin Cities Metro

CITY           SKY/WX    TMP DP  RH WIND       PRES   REMARKS
TWIN CITIES    CLOUDY    26  16  65 S17       30.03F WCI  13
ST PAUL        MOSUNNY   26  16  65 S17G24    30.06F WCI  13
BLAINE         PTSUNNY  N/A N/A N/A S18G25    30.00F
LAKEVILLE      PTSUNNY   27  18  69 S13       30.03F WCI  16
EDEN PRAIRIE   PTSUNNY   28  18  66 S14       30.01F WCI  17
SOUTH ST PAUL  MOSUNNY   27  16  63 S14G21    30.05F WCI  16
LAKE ELMO      FAIR      28  19  69 S17G23    30.05F WCI  16
$$
MNZ001>005-007-008-013>017-022>024-027-028-212200-
   Northwest Minnesota

CITY           SKY/WX    TMP DP  RH WIND       PRES   REMARKS
BEMIDJI        MOSUNNY   30  19  65 S16       29.74S WCI  18
HALLOCK        PTSUNNY   34  27  75 S23       29.59F WCI  22
ROSEAU         PTSUNNY   30  23  74 S16G29    29.62F WCI  19
WARROAD        CLOUDY    30  23  74 S16G25    29.63F WCI  19
THIEF RVR FALL MOSUNNY   28  23  80 S22G29    29.69S WCI  15
CROOKSTON      PTSUNNY   30  25  80 S23G30    29.71S WCI  17
FOSSTON        MOSUNNY   27  19  74 S17       29.72F WCI  14
DETROIT LAKES  MOSUNNY   30  23  74 S17G23    29.79S WCI  18
MOORHEAD       PTSUNNY   32  25  74 S20G28    29.77F WCI  20
PARK RAPIDS    MOSUNNY   28  20  71 S13G23    29.80S WCI  17
MAHNOMEN       FAIR      28  21  75 S23       29.75F WCI  14
$$
MNZ006-009>011-018-025>026-212200-
   North Central Minnesota

CITY           SKY/WX    TMP DP  RH WIND       PRES   REMARKS
BAUDETTE       CLOUDY    30  19  63 S15G25    29.65F WCI  19
FLAG ISLAND    CLOUDY    28  21  74 S22G28    29.59F WCI  15
INTL FALLS     PTSUNNY   30  17  58 S12G23    29.68F WCI  20
WASKISH        PTSUNNY   30  19  64 S8        29.70S WCI  23
BIG FORK       MOSUNNY   28  18  64 S15G23    29.75F WCI  17
LONGVILLE      FAIR      28  19  69 S14G24    29.80F WCI  17
GRAND RAPIDS   SUNNY     27  16  63 S21G29    29.80F WCI  13
CRANE LAKE     MOSUNNY   28  18  64 S9G18     29.74F WCI  20
ORR            MOSUNNY   30  16  55 S12G18    29.72F WCI  21
COOK           SUNNY     28  18  64 S15G21    29.77F WCI  17
WALKER         FAIR      28  19  67 SW14G21   29.78F WCI  17
$$
MNZ012-019>021-037-212200-
   Northeast Minnesota

CITY           SKY/WX    TMP DP  RH WIND       PRES   REMARKS
DULUTH         SUNNY     28  15  58 SW20      29.87F WCI  15
ELY            MOSUNNY   28  18  64 SW16G24   29.77F WCI  17
HIBBING        SUNNY     30  17  58 S17G28    29.81F WCI  18
EVELETH        SUNNY     30  19  64 S17G23    29.82F WCI  18
DULUTH HARBOR  SUNNY     30  19  64 SW20G28   29.92F WCI  18
TWO HARBORS    SUNNY     32  21  64 SW15G23   29.87F WCI  22
SILVER BAY     SUNNY     30  18  59 S14G23    29.85F WCI  20
GRAND MARAIS     N/A     31  24  75 SW28G35   29.89F WCI  17
G MARAIS ARPRT MOCLDY    21  14  73 S12G25    29.82F WCI   9
$$
MNZ029>031-032-039>041-046>048-054>057-064-212200-
   West Central Minnesota

CITY           SKY/WX    TMP DP  RH WIND       PRES   REMARKS
FERGUS FALLS   PTSUNNY   28  21  74 S17       29.85F WCI  16
WHEATON        PTSUNNY   30  25  80 SE9       29.84F WCI  22
MORRIS         PTSUNNY   34  27  75 S17       29.84S WCI  23
ALEXANDRIA     CLOUDY    29  22  75 S20       29.86S WCI  16
ELBOW LAKE       N/A     29  24  81 S20       29.83F WCI  16
WADENA         MOSUNNY   27  19  74 S14       29.82F WCI  15
GLENWOOD       CLOUDY    30  25  80 S20G25    29.87F WCI  18
APPLETON       PTSUNNY   36  27  69 S9        29.86F
BENSON         CLOUDY    34  27  75 S12       29.87F WCI  25
ORTONVILLE     PTSUNNY   34  25  69 S7        29.85R WCI  28
MADISON        PTSUNNY   37  28  70 S20       29.85F
WILLMAR        FAIR      34  25  69 S6        29.92F WCI  29
$$
MNZ033>034-036-042>043-049>051-058-059-212200-
   Central Minnesota

CITY           SKY/WX    TMP DP  RH WIND       PRES   REMARKS
ST CLOUD       CLOUDY    29  19  66 S21       29.94F WCI  16
SAUK CENTRE    FAIR      29  23  76 S14       29.89F WCI  19
PAYNESVILLE    CLOUDY    26  21  80 SE15      29.91F WCI  14
AITKIN         MOSUNNY   30  19  64 S13       29.86F WCI  20
PINE RIVER     PTSUNNY   28  19  69 S16G24    29.87F WCI  17
BRAINERD       PTSUNNY   26  18  71 S17G24    29.88F WCI  13
STAPLES        PTSUNNY   27  19  74 S10G18    29.85F WCI  17
LONG PRAIRIE   FAIR      27  21  80 SE12      29.88F WCI  16
LITTLE FALLS   CLOUDY    28  19  69 S13G20    29.91F WCI  18
LITCHFIELD     CLOUDY    30  25  80 S6        29.94F WCI  24
BUFFALO        CLOUDY    28  19  68 S9G20     29.97F WCI  19
MAPLE LAKE     CLOUDY    29  22  74 S14G23    29.96F WCI  18
$$
MNZ037-044-045-052-053-212200-
   East Central Minnesota

CITY           SKY/WX    TMP DP  RH WIND       PRES   REMARKS
PRINCETON      CLOUDY    30  19  64 S12G17    29.96F WCI  21
MORA             N/A    N/A N/A N/A MISG        N/A
CAMBRIDGE      PTSUNNY   30  18  59 S12       29.95F WCI  21
RUSH CITY      PTSUNNY   27  17  66 S14       29.98F WCI  15
MOOSE LAKE     SUNNY     27  16  63 CALM      29.90F
HINCKLEY       FAIR      27  18  69 S15       29.96F WCI  15
CLOQUET        SUNNY     27  16  63 SW14G20   29.89S WCI  15
MCGREGOR       MOSUNNY   30  21  69 S16G25    29.89S WCI  19
$$
MNZ071>073-080-081-089-090-097-098-212200-
   Southwest Minnesota

CITY           SKY/WX    TMP DP  RH WIND       PRES   REMARKS
MONTEVIDEO     PTSUNNY   36  27  69 SW16G24   29.89F
GRANITE FALLS  PTSUNNY   34  26  74 S18G28    29.91F WCI  23
CANBY          CLOUDY    35  27  74 SW26G35   29.83F WCI  22
MARSHALL       PTSUNNY   34  25  69 SW28G37   29.86F WCI  20
REDWOOD FALLS  PTSUNNY   34  25  69 S22       29.93F WCI  22
OLIVIA         CLOUDY    34  27  75 S15G21    29.92F WCI  24
PIPESTONE      PTSUNNY   32  27  80 S25       29.88S WCI  19
WINDOM         PTSUNNY   34  25  69 S21G28    29.94F WCI  22
WORTHINGTON    PTSUNNY   32  25  74 S25G31    29.94F WCI  19
JACKSON        PTSUNNY   32  25  74 S16G24    29.98F WCI  21
TRACY          PTSUNNY   35  27  71 S22G31    29.89F WCI  23
SLAYTON        PTSUNNY   32  26  78 S21G26    29.91F WCI  20
$$
MNZ065>067-074>077-082>085-091>093-212200-
   South Central Minnesota

CITY           SKY/WX    TMP DP  RH WIND       PRES   REMARKS
MANKATO        PTSUNNY   30  19  64 S20       30.01F WCI  18
NEW ULM        CLOUDY    30  25  80 S22G31    29.97F WCI  17
ST JAMES       PTSUNNY   30  23  74 S18G31    30.00F WCI  18
FAIRMONT       PTSUNNY   30  21  69 S24G30    30.00F WCI  16
GLENCOE        CLOUDY    29  23  77 S15G25    29.97F WCI  18
FARIBAULT      PTSUNNY   27  19  74 S17       30.04F WCI  14
OWATONNA       CLOUDY    27  18  69 S23       30.03F WCI  12
WASECA         PTSUNNY   30  19  64 S20       30.05F WCI  18
ALBERT LEA     MOSUNNY   28  19  69 S15G23    30.06F WCI  17
$$
MNZ078>079-086>088-094>096-212200-
   Southeast Minnesota

CITY           SKY/WX    TMP DP  RH WIND       PRES   REMARKS
ROCHESTER      PTSUNNY   24  15  68 S16G26    30.09F WCI  11
RED WING       SUNNY     28  12  50 S13       30.08F WCI  18
STANTON        PTSUNNY   27  18  68 S14G23    30.04F WCI  16
DODGE CENTER   PTSUNNY   25  19  80 S23       30.06F WCI  10
WINONA         SUNNY     32  12  43 S7        30.16F WCI  26
AUSTIN         CLOUDY    27  18  69 S16G23    30.08F WCI  14
PRESTON        PTSUNNY   24  15  67 S15G23    30.12F WCI  12
$$
ABBREVIATIONS USED IN REMARKS
   TC - TEMPERATURES IN CELSIUS
  WCI - WIND CHILL INDEX
   HX - HEAT INDEX
  VSB - VISIBILITY
$$


USA.gov is the U.S. government's official web portal to all federal, state and local government web resources and services.